Weather History for Dayton, OH

Change the Weather History Date:

Wednesday, June 26, 2013

  Actual Average Record
Temperature  
Mean Temperature 76 °F 73 °F  
Max Temperature 83 °F 83 °F 98 °F (1954)
Min Temperature 69 °F 64 °F 49 °F (1902)
Degree Days  
Heating Degree Days 0 0  
Month to date heating degree days 11 22  
Since 1 June heating degree days 11 22  
Since 1 July heating degree days 5457 5642  
Cooling Degree Days 11 8  
Month to date cooling degree days 176 155  
Year to date cooling degree days 307 225  
Since 1 June cooling degree days 176 155  
Growing Degree Days 26 (Base 50)    
Moisture  
Dew Point 68 °F    
Average Humidity 79    
Maximum Humidity 93    
Minimum Humidity 64    
Precipitation  
Precipitation 0.26 in 0.14 in 1.85 in (1994)
Month to date precipitation 2.82 3.63  
Year to date precipitation 17.12 20.67  
Snow  
Snow 0.00 in 0.00 in 0.00 in ()
Month to date snowfall 0.0 0.0  
Since 1 June snowfall 0.0 0.0  
Since 1 July snowfall 36.3 23.3  
Snow Depth 0.00 in    
Sea Level Pressure  
Sea Level Pressure 29.87 in    
Wind  
Wind Speed 9 mph (SW)    
Max Wind Speed 28 mph    
Max Gust Speed 39 mph    
Visibility 9 miles    
Events Rain , Thunderstorm    
T = Trace of Precipitation, MM = Missing Value Source: NWS Daily Summary

Daily Weather History Graph

Daily Weather History Graph

Search for Another Location

Airport:

Trip Planner

Search our weather history database for the weather conditions in past years. The results will help you decide how hot, cold, wet, or windy it might be!

Date:

Astronomy

Jun. 26, 2013 Rise Set
Actual Time 6:10 AM EDT 9:09 PM EDT
Civil Twilight 5:37 AM EDT 9:42 PM EDT
Nautical Twilight 4:55 AM EDT 10:23 PM EDT
Astronomical Twilight 4:07 AM EDT 11:12 PM EDT
Moon 11:32 PM EDT (6/26) 10:00 AM EDT (6/26)
Length of Visible Light 16h 04m
Length of Day
14h 59m
Waning Gibbous, 85% of the Moon is Illuminated
Jun 26
Waning Gibbous
Jun 30
Last Quarter
Jul 8
New
Jul 15
First Quarter
Jul 22
Full

Hourly Weather History & Observations

Time (EDT) Temp. Heat Index Dew Point Humidity Pressure Visibility Wind Dir Wind Speed Gust Speed Precip Events Conditions
12:18 AM 80.6 °F 84.6 °F 71.6 °F 74% 29.93 in 10.0 mi SSW 9.2 mph - N/A   Mostly Cloudy
12:45 AM 80.6 °F 84.6 °F 71.6 °F 74% 29.93 in 9.0 mi SSW 11.5 mph - N/A Thunderstorm Thunderstorm
12:56 AM 79.0 °F - 71.1 °F 77% 29.90 in 9.0 mi SSW 10.4 mph - N/A Thunderstorm Thunderstorm
1:13 AM 78.8 °F - 71.6 °F 78% 29.92 in 9.0 mi SSW 10.4 mph - N/A   Mostly Cloudy
1:38 AM 77.0 °F - 66.2 °F 69% 29.93 in 10.0 mi WNW 12.7 mph - 0.00 in Rain , Thunderstorm Light Thunderstorms and Rain
1:56 AM 75.0 °F - 64.9 °F 71% 29.91 in 10.0 mi NW 15.0 mph - 0.00 in Thunderstorm Thunderstorm
2:05 AM 73.4 °F - 66.2 °F 78% 29.94 in 10.0 mi NNW 12.7 mph - N/A   Mostly Cloudy
2:56 AM 72.0 °F - 66.0 °F 81% 29.92 in 10.0 mi West 5.8 mph - 0.00 in Rain Light Rain
3:56 AM 71.1 °F - 66.0 °F 84% 29.91 in 10.0 mi Calm Calm - 0.00 in   Overcast
4:56 AM 71.1 °F - 66.9 °F 87% 29.93 in 10.0 mi SW 11.5 mph - 0.00 in Rain Light Rain
5:56 AM 70.0 °F - 66.0 °F 87% 29.92 in 10.0 mi SSW 9.2 mph - 0.03 in Rain Light Rain
6:56 AM 69.1 °F - 66.9 °F 93% 29.89 in 10.0 mi South 9.2 mph - 0.00 in   Mostly Cloudy
7:56 AM 70.0 °F - 66.9 °F 90% 29.91 in 10.0 mi WSW 9.2 mph 20.7 mph N/A   Scattered Clouds
8:00 AM 69.8 °F - 68.0 °F 94% 29.95 in 10.0 mi WSW 11.5 mph - N/A   Scattered Clouds
8:56 AM 73.0 °F - 66.9 °F 81% 29.91 in 10.0 mi WSW 8.1 mph - N/A   Mostly Cloudy
9:56 AM 75.9 °F - 66.9 °F 74% 29.91 in 10.0 mi SW 9.2 mph - N/A   Mostly Cloudy
10:56 AM 77.0 °F - 64.9 °F 66% 29.90 in 10.0 mi SSW 10.4 mph - N/A   Mostly Cloudy
11:56 AM 81.0 °F 83.8 °F 68.0 °F 65% 29.91 in 10.0 mi SW 11.5 mph - N/A   Mostly Cloudy
12:56 PM 81.0 °F 84.1 °F 69.1 °F 67% 29.90 in 10.0 mi SSW 8.1 mph - N/A   Mostly Cloudy
1:56 PM 81.0 °F 84.4 °F 70.0 °F 69% 29.88 in 10.0 mi South 8.1 mph - N/A   Mostly Cloudy
2:56 PM 81.0 °F 84.4 °F 70.0 °F 69% 29.85 in 10.0 mi South 11.5 mph - N/A   Overcast
3:51 PM 77.0 °F - 66.2 °F 69% 29.90 in 10.0 mi West 25.3 mph 39.1 mph N/A Thunderstorm Thunderstorm
3:56 PM 73.9 °F - 64.9 °F 73% 29.87 in 8.0 mi West 20.7 mph 39.1 mph 0.00 in Rain , Thunderstorm Light Thunderstorms and Rain
4:01 PM 69.8 °F - 66.2 °F 88% 29.88 in 1.8 mi West 16.1 mph 27.6 mph 0.01 in Rain , Thunderstorm Heavy Thunderstorms and Rain
4:15 PM 69.8 °F - 66.2 °F 88% 29.87 in 3.0 mi South 9.2 mph - 0.14 in Rain , Thunderstorm Light Thunderstorms and Rain
4:28 PM 69.8 °F - 66.2 °F 88% 29.84 in 10.0 mi SSE 4.6 mph - 0.14 in Rain , Thunderstorm Light Thunderstorms and Rain
4:48 PM 73.4 °F - 68.0 °F 83% 29.84 in 10.0 mi Calm Calm - 0.14 in   Mostly Cloudy
4:56 PM 75.0 °F - 68.0 °F 79% 29.82 in 10.0 mi East 5.8 mph - 0.14 in   Mostly Cloudy
5:50 PM 73.4 °F - 68.0 °F 83% 29.85 in 3.0 mi WSW 5.8 mph 27.6 mph 0.00 in Rain , Thunderstorm Heavy Thunderstorms and Rain
5:56 PM 73.0 °F - 69.1 °F 87% 29.82 in 2.0 mi SW 4.6 mph 18.4 mph 0.06 in Rain , Thunderstorm Thunderstorms and Rain
6:08 PM 73.4 °F - 69.8 °F 88% 29.84 in 10.0 mi WSW 5.8 mph - 0.00 in Rain , Thunderstorm Light Thunderstorms and Rain
6:31 PM 73.4 °F - 69.8 °F 88% 29.83 in 10.0 mi SW 4.6 mph - 0.02 in   Mostly Cloudy
6:56 PM 73.9 °F - 71.1 °F 91% 29.81 in 8.0 mi SSW 5.8 mph - 0.02 in Rain Light Rain
7:56 PM 73.9 °F - 70.0 °F 87% 29.80 in 9.0 mi South 8.1 mph - 0.01 in   Mostly Cloudy
8:56 PM 73.0 °F - 70.0 °F 90% 29.79 in 8.0 mi SSW 8.1 mph - N/A   Overcast
9:56 PM 71.1 °F - 69.1 °F 93% 29.78 in 10.0 mi South 10.4 mph - N/A   Mostly Cloudy
10:20 PM 71.6 °F - 69.8 °F 94% 29.80 in 7.0 mi SW 10.4 mph - N/A   Overcast
10:28 PM 71.6 °F - 69.8 °F 94% 29.80 in 8.0 mi South 9.2 mph - N/A   Mostly Cloudy
10:56 PM 71.1 °F - 69.1 °F 93% 29.78 in 7.0 mi South 4.6 mph - N/A   Overcast
11:03 PM 71.6 °F - 69.8 °F 94% 29.81 in 7.0 mi South 5.8 mph - N/A   Overcast
11:56 PM 71.1 °F - 69.1 °F 93% 29.80 in 7.0 mi South 6.9 mph - N/A   Overcast